FW2982 Weather Reports


time (UTC)temp
C
wind
direction
speed
KPH
gust
KPH
rain 1hr
cm
rain 24hr
cm
rain mn
cm
humidity
%
barometer
mb
20260906225300 24 62 0.0 1.6 0.03 0.05 0.05 67 1013.1
20260906224755 24 62 0.0 3.2 0.03 0.05 0.05 67 1013.0
20260906224247 24 62 0.0 3.2 0.03 0.05 0.05 67 1012.9
20260906223747 25 62 0.0 3.2 0.03 0.05 0.05 65 1012.8
20260906223248 25 62 0.0 3.2 0.03 0.05 0.05 63 1012.8
20260906222747 25 62 0.0 3.2 0.03 0.05 0.05 61 1012.8
20260906222241 25 62 0.0 4.8 0.03 0.05 0.05 61 1012.8
20260906221740 25 55 0.0 4.8 0.03 0.05 0.05 59 1012.8
20260906221232 25 52 1.6 6.4 0.03 0.05 0.05 59 1012.8
20260906220733 25 51 1.6 6.4 0.03 0.05 0.05 59 1012.7
20260906220231 26 71 1.6 6.4 0.03 0.05 0.05 59 1012.7
20260906215732 26 39 0.0 0.0 0.00 0.03 0.03 61 1012.7
20260906215204 26 39 0.0 0.0 0.00 0.03 0.03 61 1012.7
20260906214704 26 39 0.0 1.6 0.00 0.03 0.03 61 1012.6
20260906214203 26 39 0.0 3.2 0.00 0.03 0.03 61 1012.6
20260906213703 26 39 0.0 3.2 0.00 0.03 0.03 61 1012.6
20260906213444 26 39 0.0 3.2 0.00 0.03 0.03 59 1012.6
20260906212702 26 38 1.6 6.4 0.00 0.03 0.03 59 1012.6
20260906212202 26 37 3.2 6.4 0.00 0.03 0.03 59 1012.6
20260906211705 26 83 0.0 4.8 0.00 0.03 0.03 57 1012.6
20260906211203 26 80 3.2 4.8 0.00 0.03 0.03 58 1012.7
20260906210702 26 94 1.6 6.4 0.00 0.03 0.03 58 1012.7
20260906210203 27 102 1.6 6.4 0.00 0.03 0.03 56 1012.7
20260906205703 27 92 1.6 4.8 0.00 0.03 0.03 56 1012.7
20260906205203 27 305 1.6 4.8 0.00 0.03 0.03 56 1012.6
20260906204703 27 109 1.6 4.8 0.00 0.03 0.03 57 1012.5
20260906204204 27 58 3.2 4.8 0.00 0.03 0.03 56 1012.4
20260906203704 27 61 1.6 4.8 0.00 0.03 0.03 54 1012.4
20260906203446 27 58 3.2 4.8 0.00 0.03 0.03 54 1012.4
20260906202703 27 47 0.0 6.4 0.00 0.03 0.03 54 1012.4
20260906202203 27 309 3.2 6.4 0.00 0.03 0.03 55 1012.3
20260906201704 27 54 1.6 4.8 0.00 0.03 0.03 56 1012.3
20260906201203 27 80 0.0 4.8 0.00 0.03 0.03 54 1012.3
20260906200650 27 73 1.6 3.2 0.00 0.03 0.03 58 1012.1
20260906200148 26 312 0.0 3.2 0.00 0.03 0.03 61 1012.3
20260906195713 26 16 0.0 6.4 0.00 0.03 0.03 60 1012.5
20260906195704 26 30 0.0 3.2 0.00 0.03 0.03 62 1012.4
20260906194925 27 16 3.2 8.0 0.00 0.03 0.03 58 1012.5
20260906194145 28 51 3.2 8.0 0.00 0.03 0.03 57 1012.3
20260906193710 27 72 1.6 8.0 0.00 0.03 0.03 55 1012.4
20260906193702 27 83 1.6 8.0 0.00 0.03 0.03 56 1012.3
20260906192645 28 94 4.8 6.4 0.00 0.03 0.03 54 1012.5
20260906192144 28 48 3.2 8.0 0.00 0.03 0.03 54 1012.5
20260906191644 28 25 3.2 8.0 0.00 0.03 0.03 56 1012.5
20260906191426 28 23 3.2 6.4 0.00 0.03 0.03 55 1012.6
20260906190644 28 292 1.6 9.7 0.00 0.03 0.03 55 1012.5
20260906190145 28 347 1.6 9.7 0.00 0.03 0.03 58 1012.6
20260906185643 28 130 3.2 6.4 0.00 0.03 0.03 54 1012.6
20260906185145 28 71 1.6 6.4 0.00 0.03 0.03 54 1012.7
20260906184922 28 86 1.6 11.3 0.00 0.03 0.03 54 1012.7
20260906184423 28 48 4.8 11.3 0.00 0.03 0.03 55 1012.8
20260906183644 28 185 1.6 8.0 0.00 0.03 0.03 56 1012.8
20260906183143 28 193 1.6 8.0 0.00 0.03 0.03 57 1012.9
20260906182644 28 240 3.2 8.0 0.00 0.03 0.03 55 1012.9
20260906182142 28 90 1.6 8.0 0.00 0.03 0.03 53 1013.0
20260906181644 28 45 3.2 9.7 0.00 0.03 0.03 56 1013.0
20260906181142 28 269 3.2 9.7 0.00 0.03 0.03 58 1013.0
20260906180642 28 56 3.2 8.0 0.00 0.03 0.03 58 1012.9
20260906180144 28 69 0.0 11.3 0.00 0.03 0.03 59 1012.9
20260906175642 28 66 1.6 11.3 0.00 0.03 0.03 58 1013.0
20260906175142 28 59 3.2 4.8 0.00 0.03 0.03 58 1013.0
20260906174642 28 83 0.0 4.8 0.00 0.03 0.03 62 1013.1
20260906174419 27 80 1.6 9.7 0.00 0.03 0.03 58 1013.2
20260906173920 28 47 4.8 9.7 0.00 0.03 0.03 57 1013.2
20260906173142 28 183 1.6 6.4 0.00 0.03 0.03 59 1013.2
20260906172642 28 114 3.2 8.0 0.00 0.05 0.03 55 1013.2
20260906172143 28 54 4.8 8.0 0.00 0.05 0.03 58 1013.4
20260906171641 28 72 4.8 6.4 0.00 0.05 0.03 56 1013.2
20260906171420 28 63 3.2 6.4 0.00 0.05 0.03 58 1013.3
20260906170642 28 63 3.2 6.4 0.00 0.05 0.03 58 1013.4
20260906170420 27 31 3.2 6.4 0.00 0.05 0.03 61 1013.4
20260906165641 28 48 3.2 9.7 0.00 0.05 0.03 56 1013.3
20260906165141 28 48 3.2 9.7 0.00 0.05 0.03 62 1013.4
20260906164918 28 39 1.6 8.0 0.00 0.05 0.03 60 1013.4
20260906164140 28 39 3.2 8.0 0.00 0.05 0.03 59 1013.3
20260906163640 28 0 1.6 8.0 0.00 0.05 0.03 59 1013.4
20260906163142 27 100 4.8 8.0 0.00 0.05 0.03 59 1013.4
20260906162922 28 52 4.8 8.0 0.00 0.05 0.03 58 1013.4
20260906162418 28 306 1.6 8.0 0.00 0.05 0.03 60 1013.5
20260906161640 27 51 3.2 6.4 0.00 0.05 0.03 59 1013.4
20260906161140 28 69 3.2 6.4 0.00 0.05 0.03 59 1013.5
20260906160640 28 56 1.6 9.7 0.00 0.05 0.03 59 1013.6
20260906160139 27 86 4.8 9.7 0.00 0.05 0.03 62 1013.6
20260906155639 27 54 1.6 9.7 0.00 0.05 0.03 59 1013.4
20260906155140 27 0 1.6 8.0 0.00 0.05 0.03 62 1013.6
20260906154640 27 58 1.6 8.0 0.00 0.05 0.03 61 1013.6
20260906154417 27 42 3.2 8.0 0.00 0.05 0.03 61 1013.6
20260906153639 27 82 1.6 14.5 0.00 0.05 0.03 62 1013.6
20260906153139 27 47 4.8 14.5 0.00 0.05 0.03 62 1013.6
20260906152638 27 69 4.8 8.0 0.00 0.05 0.03 61 1013.7
20260906152139 27 75 3.2 6.4 0.00 0.05 0.03 62 1013.7
20260906151639 27 45 1.6 6.4 0.00 0.05 0.03 65 1013.8
20260906151138 27 124 1.6 8.0 0.00 0.05 0.03 64 1013.6
20260906150640 27 290 3.2 8.0 0.00 0.05 0.03 63 1013.6
20260906150138 27 0 1.6 6.4 0.00 0.05 0.03 64 1013.6
20260906145638 27 47 3.2 9.7 0.00 0.05 0.03 64 1013.6
20260906145140 26 58 1.6 9.7 0.00 0.05 0.03 67 1013.5
20260906144638 27 71 1.6 6.4 0.00 0.05 0.03 64 1013.5
20260906144138 27 217 1.6 6.4 0.00 0.05 0.03 66 1013.4
20260906143638 25 72 1.6 6.4 0.00 0.05 0.03 69 1013.5
20260906143138 26 65 3.2 8.0 0.00 0.05 0.03 68 1013.5
20260906142637 26 48 4.8 8.0 0.00 0.05 0.03 68 1013.4
20260906142140 26 49 1.6 6.4 0.00 0.05 0.03 68 1013.4
20260906141637 25 41 3.2 6.4 0.00 0.05 0.03 71 1013.4
20260906141137 25 71 1.6 4.8 0.00 0.05 0.03 72 1013.5
20260906140917 24 66 3.2 9.7 0.00 0.05 0.03 71 1013.5
20260906140137 24 75 3.2 9.7 0.00 0.05 0.03 71 1013.4
20260906135638 24 51 3.2 6.4 0.00 0.05 0.03 73 1013.5
20260906135140 24 55 1.6 6.4 0.00 0.05 0.03 73 1013.4
20260906134637 24 51 3.2 6.4 0.00 0.05 0.03 73 1013.5
20260906134138 23 102 3.2 4.8 0.00 0.05 0.03 74 1013.5
20260906133639 23 75 3.2 8.0 0.00 0.05 0.03 75 1013.4
20260906133137 23 54 1.6 8.0 0.00 0.05 0.03 76 1013.5
20260906132636 22 75 1.6 6.4 0.00 0.05 0.03 76 1013.5
20260906132138 22 39 3.2 6.4 0.00 0.05 0.03 77 1013.5
20260906131636 22 80 3.2 6.4 0.00 0.05 0.03 76 1013.3
20260906131139 22 48 3.2 4.8 0.00 0.05 0.03 80 1013.3
20260906130637 22 48 1.6 4.8 0.00 0.05 0.03 81 1013.3
20260906130135 21 48 3.2 6.4 0.00 0.05 0.03 81 1013.3
20260906125637 21 51 3.2 6.4 0.00 0.05 0.03 82 1013.4
20260906125135 21 51 3.2 4.8 0.00 0.05 0.03 84 1013.3
20260906124636 20 58 3.2 4.8 0.00 0.05 0.03 86 1013.3
20260906124135 20 72 3.2 4.8 0.00 0.05 0.03 88 1013.3
20260906123637 19 80 0.0 4.8 0.00 0.05 0.03 90 1013.2
20260906123135 19 72 0.0 0.0 0.00 0.05 0.03 92 1013.2
20260906122635 18 72 0.0 0.0 0.00 0.05 0.03 93 1013.1
20260906122413 18 72 0.0 0.0 0.00 0.05 0.03 93 1013.1
20260906121636 18 72 0.0 0.0 0.00 0.05 0.03 94 1013.1
20260906121136 17 72 0.0 0.0 0.00 0.05 0.03 95 1013.0
20260906120636 17 72 0.0 0.0 0.00 0.05 0.03 95 1013.0
20260906120134 16 72 0.0 0.0 0.00 0.05 0.03 95 1012.9
20260906115912 16 72 0.0 0.0 0.00 0.05 0.03 95 1012.8
20260906115134 15 72 0.0 0.0 0.00 0.05 0.03 94 1012.7
20260906114634 15 72 0.0 0.0 0.00 0.05 0.03 94 1012.8
20260906114133 15 72 0.0 0.0 0.00 0.05 0.03 94 1012.6
20260906113634 15 72 0.0 0.0 0.00 0.05 0.03 94 1012.6
20260906113137 15 72 0.0 0.0 0.00 0.05 0.03 94 1012.6
20260906112634 15 72 0.0 0.0 0.00 0.05 0.03 94 1012.6
20260906112133 15 72 0.0 0.0 0.00 0.05 0.03 94 1012.5
20260906111633 15 72 0.0 0.0 0.00 0.05 0.03 94 1012.5
20260906111133 15 72 0.0 0.0 0.00 0.05 0.03 94 1012.5
20260906110635 15 72 0.0 0.0 0.00 0.05 0.03 94 1012.6
20260906110133 15 72 0.0 0.0 0.00 0.05 0.03 94 1012.5
20260906105634 15 72 0.0 0.0 0.00 0.05 0.03 94 1012.4
20260906105133 15 72 0.0 0.0 0.00 0.05 0.03 94 1012.4
20260906104634 15 72 0.0 0.0 0.00 0.05 0.03 94 1012.4
20260906104134 15 72 0.0 0.0 0.00 0.05 0.03 94 1012.1
20260906103632 16 72 0.0 0.0 0.00 0.05 0.03 94 1011.9
20260906103409 16 72 0.0 0.0 0.00 0.05 0.03 94 1011.7
20260906102910 16 72 0.0 0.0 0.00 0.05 0.03 94 1011.6
20260906102131 16 72 0.0 0.0 0.00 0.05 0.03 94 1011.7
20260906101632 16 72 0.0 0.0 0.00 0.05 0.03 94 1011.6
20260906101133 16 72 0.0 0.0 0.00 0.05 0.03 94 1011.6
20260906100632 16 72 0.0 0.0 0.00 0.05 0.03 93 1011.5
20260906100135 16 72 0.0 0.0 0.00 0.05 0.03 93 1011.4
20260906095631 16 72 0.0 0.0 0.00 0.05 0.03 93 1011.4
20260906095408 16 72 0.0 0.0 0.00 0.08 0.03 93 1011.4
20260906094631 16 72 0.0 0.0 0.00 0.08 0.03 94 1011.3
20260906094131 16 72 0.0 0.0 0.00 0.08 0.03 94 1011.3
20260906093631 16 72 0.0 0.0 0.00 0.08 0.03 94 1011.3
20260906093131 16 72 0.0 0.0 0.00 0.08 0.03 93 1011.3
20260906092632 16 72 0.0 0.0 0.00 0.08 0.03 93 1011.2
20260906092131 16 72 0.0 0.0 0.00 0.08 0.03 93 1011.2
20260906091630 16 72 0.0 0.0 0.00 0.08 0.03 93 1011.1
20260906091130 16 72 0.0 0.0 0.00 0.08 0.03 93 1010.9
20260906090630 16 72 0.0 0.0 0.00 0.08 0.03 94 1011.0
20260906090130 16 72 0.0 0.0 0.00 0.08 0.03 94 1011.0
20260906085631 16 72 0.0 0.0 0.00 0.08 0.03 94 1010.8
20260906085130 16 72 0.0 0.0 0.00 0.08 0.03 93 1010.9
20260906084909 16 72 0.0 0.0 0.00 0.08 0.03 93 1010.8
20260906084406 16 72 0.0 0.0 0.00 0.08 0.03 93 1010.7
20260906083628 16 72 0.0 0.0 0.00 0.08 0.03 93 1010.7
20260906083127 16 72 0.0 0.0 0.00 0.08 0.03 93 1010.7
20260906082904 16 72 0.0 0.0 0.00 0.08 0.03 93 1010.7
20260906082124 17 72 0.0 0.0 0.00 0.08 0.03 93 1010.8
20260906081857 17 72 0.0 0.0 0.00 0.08 0.03 94 1010.7
20260906081121 17 72 0.0 0.0 0.00 0.08 0.03 94 1010.6
20260906080900 17 72 0.0 0.0 0.00 0.08 0.03 93 1010.6
20260906080120 17 72 0.0 0.0 0.00 0.08 0.03 93 1010.6
20260906075923 17 72 0.0 0.0 0.00 0.08 0.03 93 1010.6
20260906075918 17 72 0.0 0.0 0.00 0.08 0.03 93 1010.7
20260906074619 17 72 0.0 0.0 0.00 0.08 0.03 94 1010.6
20260906074118 17 72 0.0 0.0 0.00 0.08 0.03 94 1010.6
20260906073616 17 72 0.0 0.0 0.00 0.08 0.03 94 1010.6
20260906073115 17 72 0.0 0.0 0.00 0.08 0.03 94 1010.7
20260906072614 17 72 0.0 0.0 0.00 0.08 0.03 93 1010.6
20260906072116 17 72 0.0 0.0 0.00 0.08 0.03 93 1010.6
20260906071615 17 72 0.0 0.0 0.00 0.08 0.03 93 1010.5
20260906071113 17 72 0.0 0.0 0.00 0.08 0.03 94 1010.5
20260906070611 17 72 0.0 0.0 0.00 0.08 0.03 94 1010.4
20260906070353 17 72 0.0 0.0 0.00 0.08 0.03 94 1010.5
20260906065850 17 72 0.0 0.0 0.00 0.08 0.03 94 1010.6
20260906065106 17 72 0.0 0.0 0.00 0.08 0.03 93 1010.5
20260906064603 17 72 0.0 0.0 0.00 0.08 0.03 93 1010.6
20260906064105 18 72 0.0 0.0 0.00 0.08 0.03 94 1010.5
20260906063605 18 72 0.0 0.0 0.00 0.08 0.03 94 1010.6
20260906063104 18 72 0.0 0.0 0.00 0.08 0.03 94 1010.4
20260906062603 18 72 0.0 0.0 0.03 0.08 0.03 94 1010.4
20260906062103 18 72 0.0 0.0 0.03 0.08 0.03 94 1010.5
20260906061601 18 72 0.0 0.0 0.03 0.08 0.03 94 1010.6
20260906061102 18 72 0.0 0.0 0.03 0.08 0.03 94 1010.6
20260906060840 18 72 0.0 0.0 0.03 0.08 0.03 94 1010.6
20260906055844 18 72 0.0 0.0 0.03 0.05 0.03 94 1010.5
20260906055103 18 72 0.0 0.0 0.03 0.05 0.03 94 1010.4
20260906054603 18 72 0.0 0.0 0.03 0.05 0.03 94 1010.5
20260906054104 18 72 0.0 0.0 0.03 0.05 0.03 94 1010.5
20260906053603 18 72 0.0 0.0 0.03 0.05 0.03 94 1010.5
20260906053102 18 72 0.0 0.0 0.03 0.05 0.03 94 1010.5
20260906052602 18 72 0.0 0.0 0.00 0.05 0.00 94 1010.5
20260906052102 18 72 0.0 0.0 0.00 0.05 0.00 94 1010.6
20260906051603 18 72 0.0 0.0 0.00 0.05 0.00 94 1010.6
20260906051104 18 72 0.0 0.0 0.00 0.05 0.00 94 1010.7
20260906050551 18 72 0.0 0.0 0.00 0.05 0.00 94 1010.6
20260906050052 18 72 0.0 0.0 0.00 0.05 0.00 93 1010.6
20260906045552 19 72 0.0 0.0 0.00 0.05 0.00 94 1010.6
20260906045047 19 72 0.0 0.0 0.00 0.05 0.00 94 1010.8
20260906044548 19 72 0.0 0.0 0.00 0.05 0.00 93 1010.7
20260906044048 19 72 0.0 0.0 0.00 0.05 0.00 93 1010.7
20260906043530 19 72 0.0 0.0 0.00 0.05 0.00 93 1010.8
20260906043314 19 72 0.0 0.0 0.00 0.05 0.00 93 1011.0
20260906042530 20 72 0.0 0.0 0.00 0.05 0.00 93 1010.9
20260906042032 20 72 0.0 0.0 0.00 0.05 0.00 93 1011.1
20260906041526 20 72 0.0 0.0 0.00 0.05 0.00 93 1011.0
20260906041026 20 72 0.0 0.0 0.00 0.05 0.00 93 1011.0
20260906040526 20 72 0.0 0.0 0.00 0.05 0.00 92 1010.9
20260906040024 20 72 0.0 0.0 0.00 0.05 0.00 92 1010.9
20260906035524 20 72 0.0 0.0 0.00 0.05 0.05 92 1010.9
20260906035306 20 72 0.0 0.0 0.00 0.08 0.05 92 1010.8
20260906034524 20 72 0.0 0.0 0.00 0.08 0.05 91 1010.8
20260906034304 20 72 0.0 0.0 0.00 0.08 0.05 91 1010.9
20260906033830 21 72 0.0 0.0 0.00 0.08 0.05 91 1010.9
20260906033540 21 72 0.0 0.0 0.00 0.08 0.05 91 1010.9
20260906032523 21 72 0.0 0.0 0.00 0.08 0.05 91 1011.0
20260906032023 21 72 0.0 0.0 0.00 0.08 0.05 91 1011.0
20260906031523 21 72 0.0 0.0 0.00 0.08 0.05 91 1010.9
20260906031023 21 72 0.0 0.0 0.00 0.08 0.05 91 1011.0
20260906030523 21 72 0.0 0.0 0.00 0.08 0.05 91 1010.9
20260906030023 21 72 0.0 0.0 0.00 0.08 0.05 91 1011.0
20260906025523 21 72 0.0 0.0 0.00 0.08 0.05 91 1010.9
20260906025044 21 72 0.0 0.0 0.00 0.08 0.05 91 1010.8
20260906025036 21 72 0.0 0.0 0.00 0.08 0.05 91 1010.8
20260906024022 21 72 0.0 0.0 0.00 0.08 0.05 91 1010.8
20260906023522 21 72 0.0 0.0 0.00 0.08 0.05 91 1010.8
20260906023021 21 72 0.0 0.0 0.00 0.08 0.05 91 1010.8
20260906022521 21 72 0.0 0.0 0.00 0.08 0.05 92 1010.7
20260906022023 21 72 0.0 0.0 0.00 0.08 0.05 92 1010.6
20260906021523 21 72 0.0 0.0 0.00 0.08 0.05 92 1010.8
20260906021022 22 72 0.0 0.0 0.00 0.08 0.05 92 1010.7
20260906020521 22 72 0.0 0.0 0.00 0.08 0.05 92 1010.6
20260906020259 22 72 0.0 0.0 0.00 0.08 0.05 92 1010.7
20260906015521 22 72 0.0 0.0 0.00 0.08 0.05 92 1010.6
20260906015258 22 72 0.0 0.0 0.00 0.10 0.05 92 1010.6
20260906014522 22 72 0.0 0.0 0.00 0.10 0.05 91 1010.5
20260906014021 22 72 0.0 0.0 0.00 0.10 0.05 92 1010.5
20260906013520 22 72 0.0 0.0 0.00 0.10 0.05 91 1010.5
20260906013020 22 72 0.0 0.0 0.00 0.10 0.05 91 1010.3
20260906012824 22 72 0.0 0.0 0.00 0.10 0.05 92 1010.2
20260906012819 22 72 0.0 0.0 0.00 0.10 0.05 92 1010.3
20260906011520 22 72 0.0 0.0 0.00 0.10 0.05 92 1010.2
20260906011019 22 72 0.0 0.0 0.00 0.10 0.05 92 1010.2
20260906010520 22 72 0.0 0.0 0.00 0.10 0.05 92 1010.1
20260906010020 22 72 0.0 0.0 0.00 0.10 0.05 92 1010.0
20260906005520 22 72 0.0 0.0 0.00 0.10 0.05 92 1009.8
20260906005020 22 72 0.0 0.0 0.00 0.10 0.05 92 1009.8
20260906004519 22 72 0.0 0.0 0.00 0.10 0.05 92 1009.8
20260906004259 22 72 0.0 0.0 0.00 0.10 0.05 92 1009.6
20260906003519 22 72 0.0 0.0 0.00 0.10 0.05 92 1009.6
20260906003019 23 72 0.0 0.0 0.00 0.10 0.05 92 1009.6
20260906002758 23 72 0.0 0.0 0.00 0.10 0.05 92 1009.6
20260906002019 23 72 0.0 0.0 0.00 0.10 0.05 91 1009.5
20260906001518 23 72 0.0 0.0 0.00 0.10 0.05 91 1009.5
20260906001014 23 72 0.0 0.0 0.00 0.10 0.05 91 1009.5
20260906000515 23 72 0.0 0.0 0.00 0.10 0.05 91 1009.6
20260906000256 23 72 0.0 0.0 0.00 0.10 0.05 90 1009.4
20260905235513 23 72 0.0 0.0 0.00 0.10 0.05 90 1009.3
20260905235013 23 72 0.0 0.0 0.00 0.10 0.05 89 1009.4
20260905234515 23 72 0.0 0.0 0.00 0.10 0.05 89 1009.5
20260905234037 23 72 0.0 0.0 0.00 0.10 0.05 88 1009.4
20260905234028 23 72 0.0 0.0 0.00 0.10 0.05 89 1009.5
20260905233011 24 72 0.0 0.0 0.00 0.10 0.05 88 1009.2
20260905232507 24 72 0.0 0.0 0.00 0.13 0.05 87 1009.2
20260905232004 24 72 0.0 0.0 0.00 0.13 0.05 87 1009.2
20260905231502 24 72 0.0 0.0 0.00 0.13 0.05 86 1009.1
20260905231002 24 72 0.0 0.0 0.00 0.13 0.05 86 1009.0
20260905230501 24 72 0.0 0.0 0.00 0.13 0.05 85 1009.1
20260905230002 24 72 0.0 0.0 0.00 0.13 0.05 84 1009.1